RH
25 24 23 23 22 21 20 18 17 17 16 15 15 14 13 13 14 15 16 17 18 19 19 20 21 21 20 18 17 16 15 15 16 17 18 19 22 25 26 28 29 28 25 23 22 21 20 20 21 22 23 24 24 24 24 24 24 25 25 26 26 25 23 22 22 23 23 23 24 25 23 21 21 20 20 20 20 20 20 19 19 19 19 19 19 19 20 21 21 21 20 20 19 19 18 18 18 18 18 18 18 18 18
26 24 22 21 19 18 18 17 16 16 15 15 14 14 13 13 14 14 16 17 19 20 22 22 22 22 21 20 19 17 16 16 15 16 17 19 20 22 24 26 28 28 26 25 23 22 21 21 22 23 24 25 25 25 26 25 25 26 26 27 27 26 25 24 24 23 24 24 25 26 24 22 21 20 20 20 20 19 19 19 19 19 19 19 19 20 21 21 21 20 20 19 19 18 18 18 18 18 19 19 19 19 19
26 24 21 19 18 17 17 16 16 16 15 15 14 14 14 15 15 14 15 17 19 21 23 24 24 24 22 22 21 20 18 17 16 16 16 17 19 20 22 24 25 26 25 25 24 23 21 22 23 24 25 26 26 26 26 26 26 26 26 26 27 26 26 25 24 24 24 25 27 27 25 23 21 20 20 20 20 20 20 19 19 19 19 19 20 20 22 22 21 20 20 19 19 19 18 19 19 19 19 19 20 20 20
26 24 21 20 18 17 16 16 15 16 16 15 14 14 15 15 14 14 15 17 19 21 23 25 26 25 24 23 22 22 21 19 18 17 17 17 18 19 20 21 22 24 25 25 24 23 21 22 23 24 26 26 26 26 26 26 26 26 26 26 26 26 26 25 24 24 23 26 28 28 25 23 21 20 19 19 20 20 20 20 20 20 20 20 20 21 22 22 21 20 20 20 20 20 20 20 20 20 20 20 21 21 20
25 24 21 19 18 17 16 15 15 15 15 14 14 14 15 15 14 15 16 18 19 22 26 26 25 25 25 24 24 24 23 22 20 19 18 18 18 18 18 20 21 23 24 24 24 23 21 21 23 24 25 26 26 26 26 26 26 26 26 26 26 25 26 25 24 23 22 25 27 28 26 24 22 20 20 21 21 21 21 21 21 20 20 20 20 20 21 21 21 20 20 20 20 20 21 21 21 21 21 21 21 21 22
24 22 20 18 16 16 15 15 14 14 14 14 14 14 16 16 16 16 17 18 19 21 23 23 22 23 26 27 28 27 25 24 23 22 21 19 18 18 19 20 21 21 22 23 23 22 21 21 22 24 25 26 26 26 26 26 26 25 25 25 25 25 25 25 24 24 22 23 27 30 29 25 23 22 22 22 23 22 22 22 22 21 21 21 21 20 20 20 21 20 21 21 21 21 22 22 22 22 22 22 22 22 23
23 20 18 17 16 16 15 14 13 13 13 14 15 15 15 16 18 19 19 18 18 19 19 19 19 21 22 25 27 28 27 27 26 25 24 22 20 19 19 20 20 20 20 21 22 22 22 21 21 22 24 25 26 26 26 25 25 25 25 25 25 24 24 25 24 24 22 22 25 28 28 27 25 22 22 23 23 23 23 22 22 22 22 21 21 21 21 21 21 21 21 21 22 22 22 23 23 23 23 23 23 23 23
22 20 18 18 18 17 16 15 14 14 14 15 15 16 16 17 19 19 19 19 17 16 15 15 17 19 20 22 23 26 29 29 28 27 26 25 23 20 19 19 20 20 20 20 21 21 23 22 21 21 22 24 25 26 25 25 25 25 25 25 24 24 24 24 24 24 23 23 24 26 26 26 25 23 22 23 23 23 24 24 23 23 22 22 22 21 21 21 21 21 21 22 22 22 23 23 24 24 24 24 24 24 24
20 19 17 17 18 19 18 17 16 16 16 16 16 17 17 17 18 18 19 18 16 15 15 15 16 17 18 19 20 21 23 25 26 27 27 26 24 22 20 20 20 20 20 20 20 20 21 20 20 20 20 22 24 25 25 25 25 25 25 25 24 24 24 24 24 24 23 23 24 25 26 26 26 25 23 23 22 22 22 23 23 23 22 22 22 22 21 21 21 22 22 22 22 23 23 24 24 25 25 25 25 25 25
18 18 17 16 18 20 21 19 18 18 18 17 17 17 17 17 17 17 18 18 17 17 16 16 16 16 16 16 16 17 18 19 21 23 24 23 23 21 20 20 20 20 20 20 20 20 20 20 19 19 19 20 22 24 24 24 24 24 24 24 24 24 24 24 24 24 24 23 24 25 26 26 26 26 23 22 20 19 18 19 21 22 23 22 22 22 22 22 22 22 22 22 23 23 24 24 25 25 25 25 26 26 26
15 16 16 16 18 20 21 20 19 19 19 18 18 17 17 17 17 17 17 17 17 17 17 17 17 17 17 16 16 16 16 16 17 18 19 20 20 19 19 19 19 19 19 19 19 20 20 20 19 19 18 19 21 22 23 23 24 24 24 24 24 24 24 24 24 24 24 24 24 24 26 27 27 25 23 21 20 19 17 17 18 20 21 22 22 22 21 21 22 22 22 22 23 23 24 24 25 25 25 26 26 26 26
13 14 15 16 18 19 19 20 20 20 19 18 18 18 18 18 18 17 17 17 17 17 18 18 19 19 19 19 18 18 17 16 16 16 16 17 17 17 17 17 18 18 18 19 19 19 20 20 19 19 18 19 19 21 22 23 23 23 24 24 24 24 24 24 24 24 24 24 25 26 28 29 28 26 25 22 21 19 17 16 16 17 19 21 22 22 21 21 21 22 22 23 23 23 24 24 25 25 26 26 26 26 27
13 14 14 15 15 15 16 17 18 19 18 18 18 18 18 18 18 18 18 18 18 18 18 19 20 21 22 22 22 21 20 19 19 18 18 17 17 16 16 16 16 16 17 17 18 19 19 19 19 19 19 19 19 20 21 22 22 23 23 24 24 24 24 24 24 24 24 24 25 26 27 29 29 29 27 24 22 20 18 17 16 16 17 19 20 20 21 21 21 21 22 22 23 24 24 25 25 26 26 26 27 27 27
13 13 14 14 14 14 14 15 16 17 17 18 18 18 18 18 18 18 18 18 18 18 19 20 21 22 24 24 24 24 22 22 21 21 21 20 20 19 18 17 16 15 15 15 16 17 18 19 19 19 19 19 19 19 20 21 22 22 23 23 24 24 24 24 24 24 23 24 25 26 28 29 30 30 29 26 24 21 19 17 16 16 16 16 17 19 21 21 20 21 21 22 23 23 24 25 25 26 26 27 27 27 28
13 13 13 14 14 14 14 15 16 16 17 17 18 18 18 18 18 18 19 19 19 19 19 20 21 23 26 25 24 24 23 22 22 22 22 22 22 21 21 20 19 17 15 14 14 15 16 17 18 19 19 19 19 19 19 20 21 22 22 23 24 24 24 24 24 24 24 24 24 25 27 29 30 31 30 28 26 23 20 18 17 16 15 16 16 17 19 19 20 20 20 21 22 23 24 24 25 26 26 26 27 27 28
12 12 13 13 13 13 14 14 15 16 16 17 17 18 18 18 18 18 19 19 19 19 20 21 22 23 24 24 24 23 23 22 22 22 22 22 22 22 22 22 21 20 18 16 14 13 13 15 16 18 19 19 19 19 20 20 21 21 22 23 23 24 24 24 24 24 24 24 24 25 26 27 29 30 30 30 29 26 23 21 18 17 16 15 16 16 17 18 19 19 20 20 21 22 23 24 25 25 26 26 27 27 28
12 12 12 12 13 13 14 14 15 15 16 16 17 17 18 18 18 19 19 19 19 20 21 22 22 23 23 23 24 24 23 22 21 21 22 22 22 22 22 22 22 21 20 18 16 15 13 13 13 15 16 18 18 19 20 20 21 21 22 23 24 24 24 24 24 24 24 24 24 25 26 27 28 29 30 31 31 30 27 23 20 18 16 15 15 15 16 17 18 19 19 20 21 22 23 23 24 25 25 26 27 27 28
13 12 12 12 13 13 14 14 15 15 16 16 17 18 18 19 19 19 19 20 20 21 22 22 22 23 23 23 23 23 22 21 21 21 21 22 22 22 22 22 21 21 21 20 19 17 15 14 13 13 13 15 16 18 19 20 21 21 22 23 24 25 25 25 25 25 25 25 25 25 26 27 28 29 30 31 32 32 30 26 23 20 18 16 15 15 15 16 17 18 18 19 20 21 22 23 24 24 25 26 26 27 27
14 14 14 14 14 14 15 15 16 17 17 18 19 19 20 20 20 21 21 21 22 22 22 22 23 23 23 23 22 22 20 20 20 21 21 21 22 22 22 21 21 21 20 20 19 19 17 16 14 13 12 13 13 15 17 18 20 21 22 23 24 25 25 26 26 26 25 25 25 25 26 27 28 29 30 31 31 32 31 29 26 24 20 18 17 15 15 16 16 17 18 19 20 21 22 23 23 24 25 25 26 26 27
16 16 16 16 16 16 17 17 18 19 19 20 21 21 22 23 23 23 24 24 24 24 24 24 24 24 23 23 22 21 20 20 21 21 21 21 21 22 22 21 21 20 20 19 19 19 19 18 16 15 14 13 12 13 14 15 17 19 21 22 24 25 25 26 26 26 26 26 26 26 26 27 28 29 30 30 31 32 31 31 30 28 24 22 19 17 15 15 16 16 17 18 19 20 22 23 23 24 25 25 26 26 27
18 17 18 18 18 18 18 19 19 20 21 22 22 23 24 25 25 26 26 26 26 26 26 26 25 25 24 24 23 22 22 22 21 21 21 21 21 21 21 21 20 20 19 19 19 19 18 18 17 17 16 14 13 13 12 13 15 16 18 20 22 23 24 25 26 26 27 26 26 26 26 27 28 28 29 30 31 32 32 32 32 30 28 25 22 19 17 16 16 16 17 18 19 20 22 23 23 25 25 26 26 26 27
20 20 19 19 19 19 20 20 21 22 22 23 24 24 25 26 26 26 27 27 28 28 28 28 27 27 26 25 24 24 23 22 22 21 21 21 21 20 20 20 20 19 19 18 18 18 18 18 17 17 17 16 15 14 13 13 13 14 15 17 19 20 22 23 24 25 26 26 26 26 26 27 27 28 28 28 29 31 32 32 32 31 31 28 25 22 19 18 16 16 16 17 19 20 22 23 24 25 25 26 26 27 27
22 21 21 21 21 21 22 22 23 23 24 24 25 26 26 27 27 27 28 28 28 28 29 28 28 28 27 27 26 25 24 23 22 22 21 21 20 20 20 19 19 19 18 18 17 17 17 17 17 17 16 16 16 15 14 14 13 14 14 15 16 17 18 19 21 22 23 24 24 24 24 25 25 27 27 27 28 30 31 31 30 30 30 29 27 25 22 20 18 16 16 17 18 20 21 23 24 25 26 26 27 27 27
24 24 23 23 23 24 24 24 25 25 25 26 27 27 27 28 28 29 29 29 29 29 30 29 29 29 29 28 27 26 25 24 23 23 22 21 21 20 19 19 18 18 18 18 17 17 16 16 16 15 15 15 15 15 14 14 14 14 14 14 15 15 16 17 18 18 19 20 21 22 22 23 23 24 25 25 26 28 31 31 30 30 29 29 28 27 25 22 19 17 17 17 18 20 21 23 24 25 26 27 27 28 28
27 26 26 26 25 25 26 26 26 27 27 28 29 29 29 30 30 30 30 30 30 31 31 31 31 31 30 29 29 28 27 26 25 24 23 22 21 20 20 19 18 18 17 17 17 17 17 16 16 15 14 14 14 14 14 13 14 13 13 14 14 15 15 15 16 16 16 17 18 18 19 20 21 22 23 24 25 26 27 30 31 30 28 27 27 27 27 25 22 19 18 17 18 20 21 23 25 26 27 27 28 28 28
30 29 29 28 27 27 27 27 28 28 29 30 31 31 31 31 31 32 32 32 32 32 32 32 32 32 32 31 30 29 28 27 26 25 25 24 23 21 20 19 19 18 18 18 17 17 17 16 16 15 15 14 13 13 13 12 12 13 13 13 13 14 14 15 15 15 15 15 15 16 17 18 19 20 21 23 23 22 23 26 28 30 29 27 27 27 27 26 24 21 19 18 18 19 21 23 25 26 27 28 28 29 29
31 31 31 30 30 30 29 29 29 30 31 32 32 32 33 33 33 33 33 33 33 33 32 32 32 32 32 32 31 30 30 29 28 27 26 25 24 23 21 20 20 19 18 18 18 17 17 17 16 16 16 15 15 14 13 12 12 12 12 12 13 13 13 14 14 14 14 14 14 14 15 16 17 18 20 22 22 21 20 22 24 26 28 27 27 26 26 26 26 24 22 20 20 20 21 23 25 27 28 29 29 29 30
33 33 33 33 32 32 32 31 31 31 31 32 32 33 33 33 33 33 33 33 33 33 32 32 33 33 33 33 32 32 31 30 29 28 27 26 26 25 23 22 21 21 20 20 19 19 18 18 18 17 17 16 16 16 15 14 14 13 12 12 12 13 13 13 14 14 14 14 14 14 14 14 15 16 17 20 22 22 20 20 22 24 26 26 26 26 26 26 26 27 26 24 23 22 22 24 25 27 28 29 30 30 30
34 35 35 35 35 34 34 33 32 32 32 32 32 32 32 33 33 33 33 33 33 33 32 32 32 32 32 33 32 32 32 31 31 29 28 28 27 26 25 24 23 23 22 22 21 20 20 20 19 19 19 18 18 18 17 17 16 15 14 14 13 13 12 13 13 14 14 14 14 14 14 14 14 14 15 17 19 21 19 19 21 23 25 25 26 26 26 26 27 27 27 28 27 26 25 25 26 27 28 29 30 30 31
36 36 37 37 36 36 35 35 34 33 32 32 32 32 32 33 33 33 33 32 32 32 32 32 32 33 32 33 33 33 33 33 32 31 30 29 28 28 27 27 26 25 25 24 24 23 22 22 22 21 21 21 20 20 19 19 19 18 18 17 16 14 14 13 13 13 14 14 14 14 14 14 13 14 14 14 16 18 20 18 19 21 24 24 25 26 26 27 28 28 29 30 31 30 29 28 28 28 28 29 30 30 31
38 38 38 37 37 36 35 35 34 33 33 33 33 33 33 33 33 33 33 33 33 33 33 33 33 33 33 33 33 33 33 33 33 32 32 31 30 29 29 29 28 28 27 27 27 26 25 24 24 23 23 22 22 22 22 22 22 21 21 20 19 18 16 15 14 14 14 14 14 14 14 14 14 13 13 13 13 14 16 16 17 19 21 24 24 25 26 28 28 29 30 32 33 34 34 34 33 31 30 30 30 30 30
39 39 38 37 36 36 35 34 34 34 34 34 34 33 33 34 34 34 34 33 33 33 34 34 34 34 34 34 34 34 34 34 34 34 34 33 32 31 31 31 30 30 30 30 29 29 28 27 26 25 24 24 23 23 23 23 23 23 23 23 22 22 20 19 17 16 15 15 15 15 15 15 14 14 14 13 13 13 13 13 16 18 19 22 23 24 27 28 29 30 32 35 37 38 38 38 37 36 35 33 32 31 31
39 39 38 37 36 36 35 34 34 34 34 34 34 34 34 34 34 34 34 34 34 34 34 34 34 34 34 34 34 34 34 35 35 35 35 34 34 34 33 33 32 32 32 32 32 31 30 30 29 28 27 26 25 25 24 24 24 24 24 24 24 24 23 22 20 19 17 17 16 16 15 16 15 15 15 14 14 13 13 13 13 14 16 18 20 22 24 26 29 31 33 37 40 42 42 43 42 41 40 38 36 34 33
39 38 38 38 37 36 36 35 34 34 34 34 34 34 33 34 34 34 35 35 35 35 35 35 34 34 34 34 34 34 34 34 35 35 35 35 35 35 35 34 34 34 34 34 33 33 33 32 31 30 29 28 28 27 26 25 25 24 24 24 24 24 24 23 22 21 20 19 18 17 17 17 16 16 16 16 15 14 13 13 13 14 15 17 18 19 20 24 27 31 34 38 42 44 46 47 47 47 46 44 43 41 39
38 38 38 37 37 36 36 35 35 34 34 33 33 33 33 33 34 34 34 35 35 35 35 35 35 35 35 35 34 34 34 34 35 35 35 34 34 35 35 35 35 35 35 35 34 34 34 33 32 32 31 30 29 28 27 27 26 26 25 24 24 24 24 24 23 22 22 21 20 19 19 18 18 17 17 16 16 15 14 14 13 13 14 16 17 18 20 23 27 31 35 38 42 46 50 51 52 52 52 51 50 48 46
37 37 37 37 36 36 36 35 35 35 34 34 34 34 33 33 33 34 34 34 34 35 35 35 35 35 35 36 35 35 35 35 35 35 35 35 34 34 35 35 35 35 35 35 35 35 35 34 34 33 32 32 31 30 29 28 27 26 25 25 24 24 24 24 23 23 23 22 22 21 21 20 19 19 18 17 16 16 15 15 14 14 14 15 17 19 22 25 29 32 36 38 41 45 50 52 54 55 56 55 55 54 53
36 36 36 36 35 35 35 35 35 35 35 35 35 35 35 35 35 35 35 35 35 35 36 36 36 36 37 36 36 36 36 36 36 36 35 35 35 35 35 35 35 35 35 34 34 34 34 34 33 33 33 33 32 31 30 29 28 27 26 25 25 24 24 24 23 23 23 23 23 23 22 22 21 20 19 18 18 17 16 16 16 16 16 17 19 22 25 28 31 34 36 38 39 42 46 49 52 54 56 56 57 57 57
35 35 35 35 35 34 35 35 35 36 36 36 36 36 37 37 37 37 37 37 37 37 38 38 38 38 38 38 37 37 36 37 37 36 36 36 36 36 36 35 36 36 35 35 34 34 34 33 33 33 33 33 33 32 32 31 30 29 28 27 26 25 25 24 24 23 23 23 23 23 23 23 22 22 21 21 20 20 19 19 19 20 21 22 24 26 28 30 33 35 37 38 39 40 43 45 47 50 52 54 56 57 59
34 34 34 34 33 34 34 34 35 36 36 37 37 37 38 38 38 38 39 39 39 39 39 39 39 39 39 39 38 38 38 38 37 37 36 37 36 36 36 36 37 37 36 36 36 35 35 34 34 33 33 33 33 33 33 32 32 31 31 31 30 28 27 26 25 25 25 24 24 24 24 24 24 24 24 24 24 24 24 25 26 27 28 29 30 32 33 34 35 36 37 38 38 40 41 43 45 47 49 50 52 55 58
33 33 33 33 33 33 33 34 35 36 36 37 37 38 38 39 39 39 40 40 40 40 40 41 40 39 39 39 39 39 38 38 38 37 37 37 37 36 37 37 37 38 37 37 37 37 36 36 36 35 35 35 35 35 35 34 34 33 33 33 33 32 32 31 30 28 28 28 27 27 26 27 27 27 28 29 30 31 32 33 34 35 36 36 37 38 38 38 38 37 38 38 39 40 40 41 43 45 46 47 49 52 54
31 31 32 32 32 32 33 34 34 36 36 37 38 38 39 39 40 40 41 41 41 41 41 42 41 41 40 40 40 39 39 39 39 39 38 38 38 38 38 38 39 39 39 39 39 39 38 38 38 37 37 37 37 37 37 36 36 36 36 36 36 36 36 36 35 34 34 33 32 32 32 32 33 33 34 35 36 37 38 39 40 41 41 42 42 42 42 42 42 41 41 41 41 41 42 43 44 45 46 46 48 50 52
31 31 31 31 32 32 33 34 35 36 37 37 38 39 39 40 41 41 42 42 42 42 42 42 42 42 41 41 41 41 40 40 41 41 41 40 40 40 40 41 41 41 41 41 41 41 40 40 40 40 39 40 40 40 39 39 39 40 40 40 39 39 39 39 40 40 40 39 38 38 38 38 39 39 39 39 40 40 41 41 42 43 43 44 44 45 45 45 45 45 46 45 45 46 46 46 46 47 47 48 49 50 51
32 32 32 32 32 33 33 34 35 36 37 38 39 40 40 41 42 42 43 43 43 43 43 43 43 43 43 42 42 42 43 43 43 43 43 43 43 43 43 43 43 43 43 44 43 43 43 43 43 43 43 43 43 43 43 43 43 43 43 43 42 42 41 41 42 42 43 43 43 42 42 42 42 42 42 42 42 42 41 41 41 42 42 43 44 45 46 46 47 47 48 48 48 48 49 49 49 49 50 50 51 52 52
32 32 33 33 33 34 35 36 37 37 38 39 40 41 41 42 43 44 45 45 45 45 44 44 44 44 44 44 44 44 45 45 45 44 44 44 44 44 43 43 43 43 43 44 44 44 44 44 44 45 45 45 45 44 44 43 43 44 44 43 43 42 42 41 41 41 42 43 43 43 43 42 42 42 42 42 42 42 41 41 41 41 41 42 43 43 45 46 46 47 48 48 49 49 50 50 51 51 52 52 53 53 53
33 34 34 35 35 36 37 37 38 39 40 41 42 42 43 44 44 45 45 46 46 45 45 44 44 45 45 45 45 45 45 45 45 44 44 43 43 43 42 42 42 42 42 42 42 42 42 42 43 43 43 43 42 42 41 40 40 40 40 40 39 39 39 38 39 39 39 40 40 41 41 41 41 41 41 41 41 41 40 40 40 40 40 40 41 42 42 43 45 45 46 47 47 48 49 50 51 51 52 53 54 54 54
35 36 36 37 38 38 39 40 41 42 42 43 44 44 44 45 45 45 45 45 45 45 45 45 45 45 45 45 45 45 45 45 44 43 43 42 42 41 41 40 40 40 40 40 40 39 39 39 39 39 38 38 38 37 36 35 35 35 35 34 34 34 34 34 35 35 36 36 36 37 38 38 39 39 39 39 39 39 38 38 39 39 39 39 39 40 40 41 42 43 44 45 46 47 48 49 49 50 51 52 53 54 54
37 38 39 40 40 41 42 43 43 44 44 45 45 45 45 45 45 45 45 44 44 44 44 44 44 44 44 44 44 44 43 43 43 42 42 41 40 40 39 39 38 38 38 37 37 36 36 35 35 34 34 33 33 32 32 31 31 31 30 30 30 30 30 30 31 31 32 32 33 33 34 35 36 37 37 37 37 37 37 37 37 38 38 39 39 39 40 40 41 42 43 43 44 45 46 47 48 49 50 51 52 53 53
39 40 41 41 42 43 44 44 45 45 45 45 45 45 44 44 44 44 43 43 43 43 42 43 43 43 42 42 42 42 41 41 41 41 40 40 39 38 38 37 37 36 36 35 35 35 34 34 33 32 32 32 31 30 30 29 29 29 29 29 29 29 29 29 29 29 30 31 31 31 31 32 34 35 36 36 37 36 36 36 37 37 37 38 39 40 40 41 41 42 42 43 44 44 45 46 47 48 49 50 51 52 53
41 41 42 42 43 43 43 44 44 44 44 44 44 44 43 43 43 43 42 42 42 42 41 41 41 41 41 40 40 40 39 40 40 40 39 39 39 38 37 37 37 37 36 36 36 36 36 35 34 34 33 33 32 32 31 31 31 31 30 30 31 30 30 30 30 31 32 32 32 32 32 33 34 35 36 37 37 37 37 37 37 37 38 39 40 41 41 42 42 42 43 43 44 44 45 46 46 47 48 49 50 51 52
42 42 42 42 42 42 42 42 43 43 43 42 42 42 42 42 42 41 41 41 41 41 41 41 40 40 40 39 39 39 39 39 40 40 40 40 40 40 40 40 39 39 39 38 38 38 38 38 37 37 36 36 35 35 34 35 34 34 34 34 34 33 33 33 33 33 34 35 35 35 35 36 36 37 37 38 38 39 38 38 39 39 40 40 41 42 42 43 43 44 44 44 45 45 45 46 46 47 48 49 50 51 52
42 42 42 42 42 42 42 42 42 42 42 42 42 42 42 41 41 41 41 41 41 41 41 41 40 40 40 40 40 40 40 41 41 42 43 42 43 43 44 43 43 42 41 41 40 40 40 39 39 38 38 37 37 37 37 37 37 38 38 38 37 36 36 35 35 34 35 36 36 37 38 38 39 40 40 40 41 41 41 41 41 41 42 42 42 43 43 44 45 45 46 46 46 47 47 47 48 48 48 49 50 51 52
43 43 43 43 43 43 43 42 43 43 43 43 42 42 42 42 42 42 42 42 42 42 42 42 42 42 41 42 42 42 43 43 44 44 45 44 44 44 45 45 45 44 43 42 41 39 38 38 37 37 37 37 37 37 37 38 39 39 40 40 40 39 39 38 37 36 35 34 34 35 36 37 39 40 41 42 43 43 43 43 43 43 43 43 44 44 44 45 46 47 47 48 48 48 49 50 50 50 51 51 51 52 52
44 44 44 44 44 44 44 44 43 43 43 43 43 43 43 43 43 43 43 43 44 44 44 44 45 45 44 45 45 45 45 45 45 45 45 44 44 43 43 44 44 45 44 43 41 38 36 35 35 35 35 36 36 36 36 36 36 37 38 39 40 40 41 41 40 39 38 36 34 33 33 34 35 37 39 41 42 43 43 44 44 44 44 45 45 45 45 46 47 48 49 49 50 50 51 52 53 53 53 54 53 53 53
44 44 44 44 44 44 44 43 43 42 42 42 42 42 43 43 43 44 44 44 45 45 46 47 47 47 47 47 46 46 45 45 44 44 43 43 42 42 42 42 43 43 42 43 42 39 34 34 34 35 34 35 35 36 35 35 35 35 36 36 37 38 39 41 41 41 41 39 38 36 35 34 34 35 36 38 40 41 42 43 44 45 46 47 47 47 47 48 48 49 50 50 51 52 53 54 55 56 57 57 57 56 55
44 44 43 43 43 42 42 42 41 41 41 40 40 41 41 42 43 43 44 44 45 45 46 45 46 46 47 45 45 44 43 42 41 41 41 40 41 41 42 42 43 43 43 42 42 40 37 37 38 39 36 37 38 39 38 36 36 35 35 35 35 36 37 38 39 40 40 41 41 41 40 39 39 38 38 39 39 40 41 42 44 45 47 48 48 49 49 49 50 51 51 51 51 52 54 55 57 58 59 59 60 59 59
42 42 42 41 41 40 40 40 40 40 40 39 39 40 40 40 41 41 42 42 41 41 41 42 42 41 41 41 41 40 40 39 38 38 38 38 39 41 41 43 45 46 46 44 43 42 41 44 45 44 40 40 41 42 42 41 41 40 38 37 36 36 36 37 38 38 39 39 40 41 42 43 43 44 44 44 44 44 44 45 46 47 48 49 49 50 50 51 52 53 54 54 54 54 55 57 58 60 61 61 61 62 61
37 38 38 37 37 38 38 38 38 39 39 39 39 39 39 39 39 38 38 37 36 36 35 35 35 35 35 36 36 36 36 36 36 36 37 37 38 39 40 42 44 46 47 48 47 46 45 46 49 49 43 41 41 42 44 44 44 43 42 41 39 39 39 39 39 39 39 39 40 41 41 42 44 45 46 47 48 49 49 50 51 51 51 51 51 51 51 52 54 56 57 57 58 58 58 59 61 62 63 63 63 63 63
32 32 33 33 34 34 35 35 36 36 37 37 36 36 35 35 34 33 33 32 31 31 31 30 30 30 30 30 31 31 31 32 32 33 33 34 34 36 37 39 41 43 45 45 46 47 47 47 49 50 47 43 41 40 42 44 44 44 43 42 41 40 41 41 41 41 40 41 42 42 42 42 43 44 46 48 49 51 52 54 56 57 58 57 56 55 54 55 56 58 59 60 61 62 62 63 64 65 65 66 66 65 65
29 29 30 30 31 31 32 32 32 33 33 33 33 32 31 31 30 29 28 28 28 28 27 28 28 28 28 28 29 29 29 29 30 30 30 31 32 34 34 35 36 37 39 40 42 44 46 49 49 49 49 47 43 40 40 41 43 44 43 42 41 41 42 43 43 43 43 43 44 44 45 44 44 45 46 46 48 50 52 55 58 60 62 63 63 62 60 59 59 60 61 62 63 64 65 66 67 67 67 67 67 67 66
30 30 30 30 29 29 29 29 29 29 29 29 29 28 28 28 28 27 27 26 26 26 26 26 26 27 27 27 28 28 28 29 29 29 29 31 33 34 34 34 34 34 34 35 36 38 41 44 46 47 49 49 46 44 41 40 41 42 43 43 42 42 43 43 44 44 45 45 45 46 47 47 46 46 46 46 46 48 50 53 57 61 64 66 68 68 67 66 65 65 64 64 65 65 66 67 68 69 69 68 68 68 68
31 30 30 30 29 29 28 28 27 27 26 26 26 26 26 26 27 26 26 26 26 26 26 26 26 26 26 27 27 27 27 27 28 28 28 31 32 33 32 33 34 35 35 36 36 38 40 41 43 45 47 47 47 46 44 42 41 41 41 42 42 43 43 43 43 44 45 45 46 46 47 47 47 46 47 47 47 47 49 52 56 60 64 67 69 71 72 72 72 72 71 69 68 67 67 67 68 68 69 69 68 68 68